EN

Hourly Weather Cabrayil

Today, 14 May, Friday

Time Temperature Precipitation Wind Pressure Humidity
00:00 +19°C° 0 mm 1 mps 709 mmHg 65%
01:00 +19°C° 0 mm 1 mps 709 mmHg 66%
02:00 +19°C° 0 mm 1 mps 709 mmHg 67%
03:00 +18°C° 0 mm 1 mps 709 mmHg 68%
04:00 +19°C° 0 mm 1 mps 710 mmHg 67%
05:00 +19°C° 0 mm 1 mps 710 mmHg 66%
06:00 +20°C° 0 mm 1 mps 710 mmHg 65%
07:00 +22°C° 0 mm 1 mps 711 mmHg 59%
08:00 +23°C° 0 mm 1 mps 711 mmHg 54%
09:00 +25°C° 0 mm 1 mps 711 mmHg 48%
10:00 +26°C° 0 mm 2 mps 711 mmHg 45%
11:00 +27°C° 0 mm 2 mps 711 mmHg 42%
12:00 +28°C° 0 mm 3 mps 711 mmHg 40%
13:00 +29°C° 0 mm 3 mps 711 mmHg 38%
14:00 +29°C° 0 mm 3 mps 710 mmHg 37%
15:00 +29°C° 0 mm 4 mps 710 mmHg 35%
16:00 +28°C° 0 mm 3 mps 710 mmHg 39%
17:00 +27°C° 0 mm 2 mps 710 mmHg 42%
18:00 +26°C° 0 mm 2 mps 710 mmHg 46%
19:00 +25°C° 0 mm 2 mps 710 mmHg 48%
20:00 +23°C° 0 mm 2 mps 710 mmHg 50%
21:00 +21°C° 0 mm 2 mps 710 mmHg 52%
22:00 +20°C° 0 mm 2 mps 710 mmHg 51%
23:00 +19°C° 0 mm 2 mps 709 mmHg 51%

Tomorrow, 15 May, Saturday

Time Temperature Precipitation Wind Pressure Humidity
00:00 +19°C° 0 mm 2 mps 709 mmHg 50%
01:00 +19°C° 0 mm 2 mps 709 mmHg 50%
02:00 +18°C° 0 mm 2 mps 709 mmHg 49%
03:00 +19°C° 0 mm 1 mps 709 mmHg 48%
04:00 +19°C° 0 mm 1 mps 709 mmHg 49%
05:00 +20°C° 0 mm 1 mps 710 mmHg 50%
06:00 +20°C° 0 mm 1 mps 710 mmHg 50%
07:00 +22°C° 0 mm 1 mps 710 mmHg 45%
08:00 +24°C° 0 mm 1 mps 710 mmHg 40%
09:00 +26°C° 0 mm 1 mps 710 mmHg 35%
10:00 +27°C° 0 mm 2 mps 710 mmHg 33%
11:00 +28°C° 0 mm 3 mps 710 mmHg 30%
12:00 +29°C° 0 mm 4 mps 710 mmHg 28%
13:00 +29°C° 0 mm 4 mps 710 mmHg 27%
14:00 +29°C° 0 mm 4 mps 710 mmHg 26%
15:00 +29°C° 0 mm 4 mps 709 mmHg 25%
16:00 +28°C° 0 mm 3 mps 709 mmHg 28%
17:00 +27°C° 0 mm 3 mps 709 mmHg 31%
18:00 +26°C° 0 mm 2 mps 709 mmHg 34%
19:00 +24°C° 0 mm 2 mps 709 mmHg 34%
20:00 +23°C° 0 mm 2 mps 709 mmHg 33%
21:00 +21°C° 0 mm 1 mps 709 mmHg 32%
22:00 +20°C° 0 mm 1 mps 709 mmHg 31%
23:00 +19°C° 0 mm 2 mps 709 mmHg 30%

Day after tomorrow, 16 May, Sunday

Time Temperature Precipitation Wind Pressure Humidity
00:00 +18°C° 0 mm 2 mps 709 mmHg 29%
01:00 +18°C° 0 mm 2 mps 708 mmHg 29%
02:00 +17°C° 0 mm 2 mps 708 mmHg 30%
03:00 +17°C° 0 mm 2 mps 708 mmHg 31%
04:00 +17°C° 0 mm 2 mps 708 mmHg 33%
05:00 +19°C° 0 mm 1 mps 709 mmHg 35%
06:00 +19°C° 0 mm 1 mps 709 mmHg 37%
07:00 +21°C° 0 mm 1 mps 709 mmHg 33%
08:00 +23°C° 0 mm 1 mps 709 mmHg 29%
09:00 +25°C° 0 mm 1 mps 709 mmHg 25%
10:00 +26°C° 0 mm 2 mps 709 mmHg 24%
11:00 +27°C° 0 mm 2 mps 709 mmHg 22%
12:00 +29°C° 0 mm 3 mps 709 mmHg 21%
13:00 +29°C° 0 mm 3 mps 708 mmHg 21%
14:00 +29°C° 0 mm 3 mps 708 mmHg 21%
15:00 +29°C° 0 mm 3 mps 708 mmHg 22%
16:00 +28°C° 0 mm 3 mps 707 mmHg 26%
17:00 +27°C° 0 mm 2 mps 707 mmHg 30%
18:00 +26°C° 0 mm 2 mps 707 mmHg 34%
19:00 +24°C° 0 mm 2 mps 707 mmHg 36%
20:00 +23°C° 0 mm 2 mps 707 mmHg 37%
21:00 +20°C° 0 mm 2 mps 707 mmHg 39%
22:00 +20°C° 0 mm 2 mps 707 mmHg 39%
23:00 +19°C° 0 mm 2 mps 706 mmHg 40%

17 May, Monday

Time Temperature Precipitation Wind Pressure Humidity
00:00 +19°C° 0 mm 2 mps 706 mmHg 41%
01:00 +19°C° 0 mm 1 mps 706 mmHg 41%
02:00 +19°C° 0 mm 1 mps 706 mmHg 41%
03:00 +19°C° 0 mm 1 mps 706 mmHg 41%
04:00 +18°C° 0 mm 0 mps 706 mmHg 43%
05:00 +18°C° 0 mm 0 mps 706 mmHg 44%
06:00 +19°C° 0 mm 0 mps 706 mmHg 45%
07:00 +22°C° 0 mm 1 mps 707 mmHg 41%
08:00 +24°C° 0 mm 1 mps 707 mmHg 37%
09:00 +26°C° 0 mm 2 mps 707 mmHg 33%
10:00 +27°C° 0 mm 2 mps 707 mmHg 31%
11:00 +28°C° 0 mm 3 mps 707 mmHg 29%
12:00 +30°C° 0 mm 3 mps 707 mmHg 28%
13:00 +30°C° 0 mm 3 mps 706 mmHg 28%
14:00 +30°C° 0 mm 3 mps 706 mmHg 28%
15:00 +31°C° 0 mm 3 mps 706 mmHg 28%
16:00 +29°C° 0 mm 3 mps 706 mmHg 32%
17:00 +28°C° 0 mm 2 mps 705 mmHg 36%
18:00 +27°C° 0 mm 2 mps 705 mmHg 40%
19:00 +26°C° 0 mm 2 mps 705 mmHg 42%
20:00 +25°C° 0 mm 2 mps 706 mmHg 43%
21:00 +23°C° 0 mm 2 mps 706 mmHg 45%
22:00 +23°C° 0 mm 2 mps 705 mmHg 46%
23:00 +21°C° 0 mm 2 mps 705 mmHg 47%

18 May, Tuesday

Time Temperature Precipitation Wind Pressure Humidity
00:00 +21°C° 0 mm 2 mps 705 mmHg 47%
01:00 +21°C° 0 mm 2 mps 705 mmHg 46%
02:00 +22°C° 0 mm 1 mps 705 mmHg 45%
03:00 +22°C° 0 mm 1 mps 704 mmHg 44%
04:00 +22°C° 0 mm 1 mps 705 mmHg 47%
05:00 +22°C° 0 mm 1 mps 705 mmHg 49%
06:00 +22°C° 0 mm 1 mps 705 mmHg 51%
07:00 +23°C° 0 mm 1 mps 706 mmHg 48%
08:00 +25°C° 0 mm 1 mps 706 mmHg 45%
09:00 +26°C° 0 mm 1 mps 707 mmHg 42%
10:00 +26°C° 0 mm 1 mps 706 mmHg 41%
11:00 +27°C° 0 mm 2 mps 706 mmHg 40%
12:00 +27°C° 0 mm 2 mps 706 mmHg 39%
13:00 +27°C° 0.1 mm 2 mps 706 mmHg 41%
14:00 +27°C° 0.1 mm 3 mps 706 mmHg 42%
15:00 +27°C° 0.1 mm 3 mps 706 mmHg 44%
16:00 +26°C° 0 mm 3 mps 706 mmHg 46%
17:00 +26°C° 0 mm 2 mps 705 mmHg 49%
18:00 +25°C° 0 mm 1 mps 705 mmHg 52%
19:00 +23°C° 0.2 mm 2 mps 706 mmHg 57%
20:00 +21°C° 0.2 mm 2 mps 706 mmHg 62%
21:00 +19°C° 0.2 mm 3 mps 707 mmHg 67%
22:00 +18°C° 0.2 mm 2 mps 707 mmHg 73%
23:00 +17°C° 0.2 mm 2 mps 707 mmHg 78%

19 May, Wednesday

Time Temperature Precipitation Wind Pressure Humidity
00:00 +18°C° 0.2 mm 1 mps 707 mmHg 84%
01:00 +16°C° 0.1 mm 1 mps 707 mmHg 85%
02:00 +16°C° 0.1 mm 1 mps 707 mmHg 86%
03:00 +16°C° 0.1 mm 1 mps 707 mmHg 88%
04:00 +16°C° 0.2 mm 1 mps 708 mmHg 86%
05:00 +18°C° 0.2 mm 1 mps 708 mmHg 84%
06:00 +18°C° 0.2 mm 1 mps 709 mmHg 82%
07:00 +19°C° 0.1 mm 1 mps 709 mmHg 76%
08:00 +21°C° 0.1 mm 1 mps 709 mmHg 70%
09:00 +22°C° 0.1 mm 1 mps 709 mmHg 65%
10:00 +23°C° 0.2 mm 2 mps 709 mmHg 60%
11:00 +24°C° 0.2 mm 2 mps 709 mmHg 56%
12:00 +25°C° 0.2 mm 2 mps 709 mmHg 52%
13:00 +25°C° 0.1 mm 2 mps 709 mmHg 50%
14:00 +26°C° 0.1 mm 2 mps 708 mmHg 48%
15:00 +26°C° 0.1 mm 2 mps 708 mmHg 45%
16:00 +26°C° 0 mm 2 mps 708 mmHg 47%
17:00 +26°C° 0 mm 2 mps 708 mmHg 48%
18:00 +25°C° 0 mm 1 mps 708 mmHg 49%
19:00 +24°C° 0 mm 1 mps 708 mmHg 52%
20:00 +23°C° 0 mm 1 mps 708 mmHg 55%
21:00 +22°C° 0 mm 1 mps 708 mmHg 57%
22:00 +21°C° 0 mm 1 mps 708 mmHg 59%
23:00 +19°C° 0 mm 2 mps 708 mmHg 60%
Show more

We Need Your Consent

Meteoprog and our Service Providers may store and access personal data such as cookies, device identifiers or other similar technologies on your device and process such data to personalise content and ads, as well as provide social media features and to analyse the traffic.

  • Store and/or access information on your device

    Cookies, device identifiers or other information can be stored or accessed on your device for the purposes indicated above.

  • Personalised ads and content, ad and content measurement, audience insights, and products development

    Ads and content can be personalised based on a profile. More data can be added to better personalise ads and content. Ad and content performance can be measured. Insights about the audience who saw the ads and content can be derived. Such data can be used to develop or improve user’s experience, systems and software.

By clicking ‘I Agree’ you will allow the use of indicated cookies, device identifiers, web beacons or other similar technologies. Your settings can be changed in the browser on your device.

For certain purposes, legitimate interests may be relied on, rather than consent. You can read more about this in our Privacy and Cookie Policy.